カタログに戻る

STARLINK-3109

運用中通信VLEO
NORAD 49143·PAYLOAD·🇺🇸 United States

打ち上げ Sep 14, 2021 から Vandenberg Space Force Base

Loading…

次のパス (今後24時間)

TLE

最新Source: CelesTrak SupGP

元期: Sep 14, 2026, 20:41 UTC

1 49143C 21082P   26257.86229167 -.00030070  00000+0 -25752-2 0  2578
2 49143  70.0014 158.8754 0002913 265.1999 200.2610 14.97506206    11

AllMySatでSTARLINK-3109をリアルタイム追跡

Download on the App Store